Preview of NWS' New Version of Forecast
This preview is not operational and should not be used for support decisions.

Regional Weather Roundup (RWR)

Issued by National Weather Service (NWS)

                            
000
ASUS42 KTBW 201718
RWRFL 
FLORIDA REGIONAL WEATHER ROUNDUP
NATIONAL WEATHER SERVICE TAMPA BAY RUSKIN FL
100 PM EDT FRI SEP 20 2019

NOTE: "FAIR" INDICATES FEW OR NO CLOUDS BELOW 12,000 FEET WITH NO
SIGNIFICANT WEATHER AND/OR OBSTRUCTIONS TO VISIBILITY.

FLZ001>010-012>015-112-114-115-201800-
PANHANDLE FLORIDA
  
CITY           SKY/WX    TMP DP  RH WIND       PRES   REMARKS
PENSACOLA      FAIR      86  64  47 E13G20    30.16F                  
PENSACOLA NAS  FAIR      84  68  58 E15G25    30.16S                  
MILTON NAS     FAIR      87  62  43 E9G17     30.17F                  
CRESTVIEW      FAIR      89  61  38 VRB7      30.19F                  
DUKE FIELD     FAIR      83  59  43 E12G17    30.18S                  
VALPARAISO     FAIR      86  60  41 E13       30.17S                  
MARY ESTHER    MOSUNNY   86  63  45 E13G20    30.16S                  
TRI COUNTY     FAIR      86  62  44 E10G17    30.19F                  
PANAMA CITY    FAIR      86  63  45 E12G22    30.16S                  
TYNDALL AFB    FAIR      84  66  54 E12G18    30.15F                  
APALACHICOLA   FAIR      83  68  60 E15G23    30.17S                  

STATION/POSITION SKY/WX   TEMP    WIND        PRES    WAVE   SWELL
                          AIR SEA DIR/SP/G            HT/PER HT/PER
                          (F)     (DEG/KT/KT) (MB)    (FT/S) (FT/S)
30.1N   87.6W              80 85   90/ 17/ 23 1021.2
29.2N   88.2W              83     100/ 17/ 21 1019.7F   7/ 8
28.8N   86.0W                 85   80/ 19/ 25 1019.6S   7/ 7
PANAMA CITY BEAC           81 83   70/  8/ 18 1022.1S
TOWER C                    78      90/ 20/ 22 1021.3F
28.5N   84.5W              81      70/ 19/ 25 1020.3

$$
FLZ011-016>038-118-127-128-134-139-239-201800-
NORTH FLORIDA
  
CITY           SKY/WX    TMP DP  RH WIND       PRES   REMARKS
MARIANNA       FAIR      84  64  50 E12       30.18F                  
TALLAHASSEE    PTSUNNY   85  66  53 NE9G17    30.18F                  
PERRY          CLOUDY    86  68  54 NE14G20   30.18S                  
LIVE OAK       MOSUNNY   84  64  51 NE12G18   30.18S                  
CROSS CITY       N/A     85  69  57 E9G21     30.16S                  
LAKE CITY      FAIR      82  64  54 E13       30.18F                  
GAINESVILLE    PTSUNNY   82  65  56 NE17G23   30.19S                  
WILLISTON      PTSUNNY   83  66  57 E7        30.15S                  
PALATKA        CLOUDY    81  63  54 E15G22    30.18R                  
MAYPORT NAS    FAIR      85  64  49 E16       30.20S                  
JACKSONVILLE   FAIR      86  62  44 NE16G24   30.19S                  
JAX NAS        FAIR      86  62  44 E16       30.19F                  
JAX CECIL      MOSUNNY   88  61  40 E16       30.19S                  
FERNANDINA BEA FAIR      85  64  49 E13       30.21S                  
ST AUGUSTINE   FAIR     N/A N/A N/A E17       30.19F                  
PALM COAST     PTSUNNY   84  64  51 E13G23    30.17S                  

STATION/POSITION SKY/WX   TEMP    WIND        PRES    WAVE   SWELL
                          AIR SEA DIR/SP/G            HT/PER HT/PER
                          (F)     (DEG/KT/KT) (MB)    (FT/S) (FT/S)
SHELL POINT      NOT AVBL
KEATON BEACH               82      80/ 17/ 22 1021.5F
CEDAR KEY                  82      80/ 16/ 18 1020.7F
FERNANDINA                 89 81   80/  8/ 12 1023.6S
30.7N   81.3W                 82                N/A     6/14   3/14
MAYPORT                    82 81   70/ 13/ 16 1023.1R
31.4N   80.9W              78 81   50/ 17/ 21 1022.9S   6/13   3/13
ST AUGUSTINE               81 81   70/ 16/ 18 1022.3F

$$
FLZ040-043>046-052-053-057-058-063-144-201800-
INTERIOR CENTRAL FLORIDA
  
CITY           SKY/WX    TMP DP  RH WIND       PRES   REMARKS
OCALA          CLOUDY    85  67  54 NE10G20   30.15S                  
LEESBURG       CLOUDY    82  69  64 E12G21    30.15S                  
SANFORD        CLOUDY    77  69  76 NE15G23   30.16S                  
ORLANDO EXEC   PTSUNNY   83  69  62 E21       30.13F                  
ORLANDO INTL   PTSUNNY   82  68  62 NE18G29   30.12F                  
KISSIMMEE      CLOUDY    85  67  54 E20G26    30.12F                  
WINTER HAVEN   CLOUDY    86  66  51 E15G26    30.12F                  
LAKELAND       PTSUNNY   84  64  51 E21       30.11F                  
BARTOW         MOSUNNY   82  68  61 E14G25    30.11S                  
SEBRING        CLOUDY    81  70  69 E16G23    30.09F                  
OKEECHOBEE     PTSUNNY   81  72  74 E10G18    30.08F                  

$$
FLZ041-047-054-059-064-141-147-201800-
EAST CENTRAL FLORIDA
  
CITY           SKY/WX    TMP DP  RH WIND       PRES   REMARKS
ORMOND BEACH   MOSUNNY   84  63  48 E15G23    30.16F                  
DAYTONA BEACH  PTSUNNY   85  68  56 NE20      30.16S                  
DELAND         CLOUDY    81  70  69 E9        30.15S                  
NEW SMYRNA BEA MOSUNNY   82  68  61 E20G29    30.17S                  
JFK SPACE CTR  MOSUNNY   85  70  60 E21G28    30.13F                  
TITUSVILLE     PTSUNNY   88  66  48 E18       30.14F                  
CAPE CANAVERAL FAIR      85  69  59 E18G28    30.12F                  
PATRICK AFB    FAIR      84  70  61 E22G29    30.11F                  
MELBOURNE      PTSUNNY   86  68  54 E22G29    30.11F                  
VERO BEACH     PTSUNNY   85  69  58 NE20G30   30.10F                  
FT PIERCE      CLOUDY    83  68  60 E15G25    30.08F                  
STUART         LGT RAIN  82  72  69 E21G32    30.09F                  

STATION/POSITION SKY/WX   TEMP    WIND        PRES    WAVE   SWELL
                          AIR SEA DIR/SP/G            HT/PER HT/PER
                          (F)     (DEG/KT/KT) (MB)    (FT/S) (FT/S)
28.5N   80.2W              81 83   70/ 19/ 29 1020.7F  11/14   8/14
28.9N   78.5W              80 81   70/ 21/ 25 1021.3F  12/13  11/13
TRIDENT PIER               84 82   70/ 12/ 19 1021.9F
28.4N   80.5W                 82                N/A     6/13   3/13
27.5N   80.2W                 82                N/A    10/13   7/13

$$
FLZ050-056-061-142-242-148-248-149-249-151-251-155-255-
160-260-201800-
WEST CENTRAL FLORIDA
  
CITY           SKY/WX    TMP DP  RH WIND       PRES   REMARKS
CRYSTAL RIVER  CLOUDY    82  66  57 E12       30.13F                  
INVERNESS      CLOUDY    86  70  58 E8        30.14S                  
BROOKSVILLE    PTSUNNY   85  65  51 E20G28    30.12F                  
CLEARWATER AIR FAIR      82  68  61 E12G20    30.09F                  
ST PETE CLEARW PTSUNNY   86  69  56 E16G23    30.09F                  
TAMPA INTL     PTSUNNY   85  67  54 NE15G26   30.10F                  
TAMPA EXEC     CLOUDY    82  72  69 NE12G17   30.11F                  
PLANT CITY     CLOUDY    84  73  70 NE15G21   30.12F                  
MACDILL AFB    FAIR      86  70  58 E13G22    30.08F                  
PETER O KNIGHT CLOUDY    86  70  58 E18       30.10F                  
ST PETERSBURG  CLOUDY    83  71  67 E21G30    30.08F                  
SARASOTA       CLOUDY    82  73  74 E10       30.06F                  
VENICE         PTSUNNY   86  72  62 E18G28    30.06F                  

STATION/POSITION SKY/WX   TEMP    WIND        PRES    WAVE   SWELL
                          AIR SEA DIR/SP/G            HT/PER HT/PER
                          (F)     (DEG/KT/KT) (MB)    (FT/S) (FT/S)
27.3N   84.2W                 84                N/A     7/ 6
CLEARWATER BEACH           83 85   80/ 11/ 18 1019.2F
MIDDLE TAMPA BAY           81     100/ 21/ 27 1019.1
VENICE                     82 85   80/ 15/ 19 1017.6F

$$
FLZ066-069-070-075>078-162-262-165-265-201800-
SOUTHWEST FLORIDA AND KEYS
  
CITY           SKY/WX    TMP DP  RH WIND       PRES   REMARKS
PUNTA GORDA    PTSUNNY   81  74  79 E21       30.08F                  
FT MYERS       LGT RAIN  87  69  54 E16G26    30.02F                  
SOUTHWEST INTL PTSUNNY   86  70  58 E21G32    30.03F                  
NAPLES         RAIN      78  75  90 E18G26    30.03R FOG              
MARCO ISLAND   CLOUDY    81  73  76 E13G18    30.03S                  
IMMOKALEE      LGT RAIN  77  73  88 SE10G18   30.02S                  
MARATHON       FAIR      89  72  56 E15G22    29.97F HX  96           
KEY WEST NAS   FAIR      89  73  59 E16G29    29.97F HX  97           
KEY WEST INTL  PTSUNNY   88  72  58 E17G26    29.98F                  

STATION/POSITION SKY/WX   TEMP    WIND        PRES    WAVE   SWELL
                          AIR SEA DIR/SP/G            HT/PER HT/PER
                          (F)     (DEG/KT/KT) (MB)    (FT/S) (FT/S)
NAPLES                     85 84   70/  8/ 15 1016.7
26.0N   85.6W              83 86   80/ 17/ 23 1016.7
DRY TORTUGAS               83      80/ 23/ 24 1015.5F
SAND KEY                   84      70/ 22/ 25 1013.5F
SOMBRERO KEY               83      60/ 22/ 27 1015.0S
LONG KEY                   84                 1013.9

$$
FLZ067-068-071>074-168-172>174-201800-
SOUTHEAST FLORIDA 
  
CITY           SKY/WX    TMP DP  RH WIND       PRES   REMARKS
W PALM BEACH   PTSUNNY   84  72  67 E18G28    30.06F                  
BOCA RATON     MOSUNNY   88  72  58 E23G35    30.05F                  
FT LAUDER-EXEC FAIR      84  72  67 NE22G36   30.02F                  
FT LAUDERDALE  PTSUNNY   86  74  67 NE20G30   30.01F                  
POMPANO BEACH  PTSUNNY   85  71  63 E24G35    30.03F                  
PEMBROKE PINES PTSUNNY   85  74  69 E22G32    30.03F                  
OPA LOCKA      LGT RAIN  82  74  76 E15G24    30.02F                  
MIAMI          LGT RAIN  81  73  76 NE17G29   30.01F                  
WEST KENDALL   RAIN      83  76  79 E14       30.00F                  
HOMESTEAD      FAIR      85  76  72 NE16G22   29.99F HX  95           

STATION/POSITION SKY/WX   TEMP    WIND        PRES    WAVE   SWELL
                          AIR SEA DIR/SP/G            HT/PER HT/PER
                          (F)     (DEG/KT/KT) (MB)    (FT/S) (FT/S)
PORT EVERGLADES            83      70/ 16/ 22 1017.0
VIRGINIA KEY               83 84   50/ 21/ 25 1015.8F
LAKE WORTH                 8